Grand Canyon, AZ

11:48 PM MST on February 07, 2016 (GMT -0700)
Grand Canyon National Park

Weather History for KGCN - January, 2012

Change the Weather History Date:

Monday, January 2, 2012

  Actual Average Record
Temperature  
Mean Temperature 41 °F -  
Max Temperature 57 °F 42 °F 58 °F (1981)
Min Temperature 21 °F 14 °F -9 °F (2013)
Degree Days  
Heating Degree Days 24    
Moisture  
Dew Point 11 °F    
Average Humidity 36    
Maximum Humidity 68    
Minimum Humidity 15    
Precipitation  
Precipitation 0.00 in - - ()
Sea Level Pressure  
Sea Level Pressure 30.47 in    
Wind  
Wind Speed 7 mph (ENE)    
Max Wind Speed 13 mph    
Max Gust Speed 18 mph    
Visibility 10 miles    
Events      
Averages and records for this station are not official NWS values.
T = Trace of Precipitation, MM = Missing Value Source: NWS Daily Summary

Daily Weather History Graph

Daily Weather History Graph

Search for Another Location

Airport or City:

Trip Planner

Search our weather history database for the weather conditions in past years. The results will help you decide how hot, cold, wet, or windy it might be!

Date:

Astronomy

Jan. 02, 2012 Rise Set
Actual Time 7:39 AM MST 5:25 PM MST
Civil Twilight 7:10 AM MST 5:54 PM MST
Nautical Twilight 6:38 AM MST 6:26 PM MST
Astronomical Twilight 6:07 AM MST 6:57 PM MST
Moon 12:40 PM MST (1/2) 1:40 AM MST (1/2)
Length of Visible Light 10h 43m
Length of Day
9h 46m
Waxing Gibbous, 64% of the Moon is Illuminated
Jan 2
Waxing Gibbous
Jan 9
Full
Jan 16
Last Quarter
Jan 23
New
Jan 30
First Quarter

Hourly Weather History & Observations

Time (MST) Temp. Windchill Dew Point Humidity Pressure Visibility Wind Dir Wind Speed Gust Speed Precip Events Conditions
12:54 AM 35.1 °F 28.6 °F 12.9 °F 40% 30.46 in 10.0 mi ENE 8.1 mph - N/A   Clear
1:54 AM 30.0 °F - 12.9 °F 49% 30.48 in 10.0 mi Calm Calm - N/A   Clear
2:54 AM 28.0 °F 24.2 °F 14.0 °F 56% 30.48 in 10.0 mi ESE 3.5 mph - N/A   Clear
3:54 AM 32.0 °F 28.7 °F 12.9 °F 45% 30.46 in 10.0 mi East 3.5 mph - N/A   Clear
4:54 AM 37.0 °F 31.6 °F 10.9 °F 34% 30.46 in 10.0 mi ENE 6.9 mph - N/A   Clear
5:54 AM 37.0 °F 30.4 °F 10.0 °F 33% 30.49 in 10.0 mi ENE 9.2 mph - N/A   Clear
6:54 AM 33.1 °F 27.7 °F 9.0 °F 37% 30.52 in 10.0 mi ENE 5.8 mph - N/A   Clear
7:54 AM 37.4 °F 31.4 °F 8.6 °F 30% 30.54 in 10.0 mi ENE 8.1 mph - N/A   Clear
8:54 AM 42.8 °F 37.5 °F 10.4 °F 27% 30.57 in 10.0 mi ENE 9.2 mph - N/A   Clear
9:54 AM 46.9 °F - 9.0 °F 21% 30.50 in 10.0 mi ENE 12.7 mph - N/A   Clear
10:54 AM 51.1 °F - 10.0 °F 19% 30.48 in 10.0 mi ENE 12.7 mph - N/A   Clear
11:54 AM 53.1 °F - 10.9 °F 19% 30.45 in 10.0 mi East 9.2 mph 18.4 mph N/A   Clear
12:54 PM 55.0 °F - 10.0 °F 17% 30.42 in 10.0 mi East 10.4 mph - N/A   Clear
1:54 PM 55.9 °F - 10.0 °F 16% 30.41 in 10.0 mi East 9.2 mph - N/A   Clear
2:54 PM 57.0 °F - 10.0 °F 15% 30.39 in 10.0 mi East 9.2 mph - N/A   Clear
3:54 PM 53.1 °F - 12.9 °F 20% 30.40 in 10.0 mi NE 10.4 mph - N/A   Clear
4:54 PM 46.9 °F - 12.9 °F 25% 30.42 in 10.0 mi NE 9.2 mph - N/A   Clear
5:54 PM 37.0 °F 34.5 °F 12.0 °F 36% 30.45 in 10.0 mi ENE 3.5 mph - N/A   Clear
6:54 PM 28.0 °F - 12.0 °F 51% 30.51 in 10.0 mi Calm Calm - N/A   Clear
7:54 PM 26.1 °F 21.9 °F 12.9 °F 58% 30.51 in 10.0 mi NE 3.5 mph - N/A   Clear
8:54 PM 28.9 °F 22.8 °F 10.9 °F 47% 30.46 in 10.0 mi ENE 5.8 mph - N/A   Clear
9:54 PM 28.0 °F 22.8 °F 12.9 °F 53% 30.45 in 10.0 mi ENE 4.6 mph - N/A   Clear
10:54 PM 25.0 °F 19.3 °F 12.9 °F 60% 30.45 in 10.0 mi ENE 4.6 mph - N/A   Clear
11:54 PM 21.9 °F 17.2 °F 12.9 °F 68% 30.44 in 10.0 mi NE 3.5 mph - N/A   Clear